This is the latest recevied weather packets stored in our database for station/object K5FEP. If no packets are shown the sender has not sent any weather packets the latest 10 day(s).
| Time | Temp. | Humidity | Pressure | Rain* | Wind** | Luminosity | Snow |
|---|---|---|---|---|---|---|---|
| 1777251780 | 12.22° C | 71% | 1019.9 hPa | 0 mm | - | 0 W/m² | - |
| 1777251477 | 12.22° C | 71% | 1019.9 hPa | 0 mm | - | 0 W/m² | - |
| 1777251173 | 12.22° C | 74% | 1019.9 hPa | 0 mm | - | 0 W/m² | - |
| 1777250869 | 12.22° C | 74% | 1019.9 hPa | 0 mm | - | 0 W/m² | - |
| 1777250566 | 12.22° C | 73% | 1019.6 hPa | 0 mm | - | 0 W/m² | - |
| 1777250266 | 12.22° C | 73% | 1019.5 hPa | 0 mm | - | 0 W/m² | - |
| 1777249963 | 12.22° C | 73% | 1019.5 hPa | 0 mm | - | 0 W/m² | - |
| 1777249659 | 12.78° C | 73% | 1019.2 hPa | 0 mm | - | 0 W/m² | - |
| 1777249356 | 12.78° C | 73% | 1019.3 hPa | 0 mm | - | 0 W/m² | - |
| 1777249052 | 12.78° C | 72% | 1018.9 hPa | 0 mm | - | 0 W/m² | - |
| 1777248749 | 12.78° C | 71% | 1018.8 hPa | 0 mm | - | 0 W/m² | - |
| 1777248446 | 12.78° C | 71% | 1019.1 hPa | 0 mm | - | 1 W/m² | - |
| 1777248142 | 12.78° C | 71% | 1018.8 hPa | 0 mm | - | 1 W/m² | - |
| 1777247841 | 12.78° C | 71% | 1018.8 hPa | 0 mm | - | 2 W/m² | - |
| 1777247538 | 12.78° C | 71% | 1018.7 hPa | 0 mm | - | 3 W/m² | - |
| 1777247236 | 12.78° C | 72% | 1018.7 hPa | 0 mm | - | 5 W/m² | - |
| 1777246934 | 12.78° C | 71% | 1018.6 hPa | 0 mm | - | 7 W/m² | - |
| 1777246629 | 12.78° C | 73% | 1018.5 hPa | 0 mm | - | 9 W/m² | - |
| 1777246326 | 12.78° C | 73% | 1018.4 hPa | 0 mm | - | 12 W/m² | - |
| 1777246023 | 13.33° C | 72% | 1018.5 hPa | 0 mm | - | 12 W/m² | - |
| 1777245722 | 13.33° C | 72% | 1018.4 hPa | 0 mm | - | 12 W/m² | - |
| 1777245419 | 13.33° C | 72% | 1018.3 hPa | 0 mm | - | 14 W/m² | - |
| 1777245118 | 13.33° C | 72% | 1018.3 hPa | 0 mm | - | 20 W/m² | - |
| 1777244815 | 13.33° C | 71% | 1018.1 hPa | 0 mm | - | 17 W/m² | - |
| 1777244511 | 13.33° C | 71% | 1017.9 hPa | 0 mm | - | 21 W/m² | - |
* Rain latest hour (hover to see other rain measurements)
** Current wind speed in m/s (hover to see current wind gust speed)